Home > Weather > Milwaukee > Past weeks

Flag for USA Past Weather in Milwaukee, Wisconsin, USA — Yesterday and Last 2 Weeks

Now
68 °F

Rain. Cloudy.


Feels Like: 68 °F
Forecast: 72 / 88 °F
Wind: 8 mph from West

Location: Milwaukee / Timmerman

Current Time: Jun 26, 2016 at 6:48:39 AM

Latest Report: Jun 26, 2016 at 6:15 AM


Visibility: 5 mi

Pressure: 29.99 "Hg

Humidity: 88%

Dew Point: 64 °F

Location of MilwaukeeLocation

Past Weather in Milwaukee — Graph

°F

Milwaukee Temperature Yesterday

Maximum temperature yesterday: 88 °F (at 2:45 PM)
Minimum temperature yesterday: 63 °F (at 3:15 AM)
Average temperature yesterday: 73 °F

High & Low Weather Summary for the Past Weeks

 TemperatureHumidityPressure
High88 °F (Jun 11, 2:45 PM)94% (Jun 15, 2:15 AM)30.26 "Hg (Jun 15, 2:15 AM)
Low54 °F (Jun 13, 4:55 AM)18% (Jun 12, 2:45 PM)29.67 "Hg (Jun 15, 7:45 PM)
Average68 °F60%30.00 "Hg
* Reported Jun 11 5:15 AM — Jun 26 5:35 AM, Milwaukee, Weather by CustomWeather, © 2016

Note: Actual official high and low records may vary slightly from our data, if they occured in-between our weather recording intervals... More about our weather records

Advertising

Milwaukee Weather History for the Previous 24 Hours

Scroll right to see more
 ConditionsComfort  
Time TempWeatherWind HumidityBarometerVisibility
5:35 AM
Sun, Jun 26
70 °FRain. Overcast.9 mph83%29.99 "Hg4 mi
5:15 AM72 °FLight rain. Overcast.16 mph73%29.98 "Hg10 mi
4:55 AM77 °FOvercast.20 mph74%29.95 "Hg10 mi
4:15 AM75 °FPassing clouds.7 mph78%29.90 "Hg10 mi
3:55 AM73 °FClear.3 mph83%29.90 "Hg10 mi
3:35 AM73 °FClear.No wind83%29.90 "Hg10 mi
3:15 AM73 °FClear.No wind83%29.90 "Hg10 mi
2:55 AM73 °FPassing clouds.3 mph83%29.91 "Hg10 mi
2:15 AM75 °FLight rain. Overcast.No wind74%29.92 "Hg10 mi
1:55 AM79 °FLight rain. Partly cloudy.6 mph70%29.94 "Hg10 mi
1:35 AM79 °FClear.10 mph70%29.94 "Hg10 mi
1:15 AM79 °FClear.13 mph70%29.94 "Hg10 mi
12:55 AM79 °FClear.9 mph70%29.95 "Hg10 mi
12:35 AM79 °FClear.10 mph70%29.96 "Hg10 mi
12:15 AM79 °FClear.8 mph70%29.96 "Hg10 mi
11:55 PM
Sat, Jun 25
79 °FClear.9 mph65%29.95 "Hg10 mi
11:15 PM79 °FClear.9 mph65%29.96 "Hg10 mi
10:55 PM79 °FClear.7 mph61%29.98 "Hg10 mi
10:35 PM79 °FClear.7 mph61%29.98 "Hg10 mi
10:15 PM79 °FClear.7 mph61%29.98 "Hg10 mi
9:55 PM79 °FClear.8 mph61%29.99 "Hg10 mi
9:40 PM79 °FClear.6 mph58%29.98 "Hg10 mi
9:15 PM79 °FSunny.5 mph58%29.98 "Hg10 mi
8:45 PM81 °FSunny.7 mph54%29.97 "Hg10 mi
7:45 PM82 °FSunny.13 mph48%29.95 "Hg10 mi
6:45 PM86 °FSunny.10 mph46%29.95 "Hg10 mi
5:45 PM88 °FSunny.12 mph43%29.97 "Hg10 mi
4:45 PM88 °FSunny.14 mph43%30.00 "Hg10 mi
3:45 PM88 °FSunny.15 mph43%30.01 "Hg10 mi
2:45 PM88 °FSunny.9 mph40%30.02 "Hg10 mi
1:45 PM86 °FSunny.13 mph43%30.03 "Hg10 mi
12:45 PM84 °FSunny.9 mph48%30.04 "Hg10 mi
11:45 AM82 °FSunny.12 mph51%30.05 "Hg10 mi
10:45 AM82 °FSunny.12 mph48%30.07 "Hg10 mi
9:45 AM81 °FSunny.12 mph54%30.08 "Hg10 mi
8:45 AM72 °FSunny.12 mph65%30.09 "Hg10 mi
7:45 AM72 °FSunny.6 mph65%30.09 "Hg10 mi
6:35 AM64 °FSunny.No wind73%30.09 "Hg10 mi
6:15 AM63 °FSunny.No wind73%30.08 "Hg10 mi
Weather by CustomWeather, © 2016

See weather overviewHow to use our weather pages